User: anonymous   Login
Location: Vancouver
(49.2500°N, 123.1330°W)
Time: 17:57:21
(UTC-08:00)
Language:

Iridium 21 - Orbit

View from above orbital plane
View from above orbital plane
View from above satellite
View from above satellite

Ground track
Ground track

The orbit data is extracted from the following two-line orbital elements,

1 25778U 99032B   18054.21533834  .00000114  00000-0  33706-4 0  9998
2 25778  86.3960 119.1009 0002237  92.8160 267.3291 14.34221089984098
Epoch (UTC): 23 February 2018 05:10:05
Eccentricity: 0.0002237
inclination: 86.3960°
perigee height: 776 km
apogee height: 779 km
right ascension of ascending node: 119.1009°
argument of perigee: 92.8160°
revolutions per day: 14.34221089
mean anomaly at epoch: 267.3291°
orbit number at epoch: 98409

The dashed part of the orbit path shows where the satellite is in the earth's shadow,  

DLR